Spokane, WA

9:34 AM PST on February 08, 2016 (GMT -0800)
Spokane International

Weather History for KGEG - April, 2014

Change the Weather History Date:

Thursday, April 17, 2014

  Actual Average Record
Temperature  
Mean Temperature 47 °F 47 °F  
Max Temperature 50 °F 57 °F 86 °F (1936)
Min Temperature 43 °F 37 °F 21 °F (2013)
Degree Days  
Heating Degree Days 18 18  
Month to date heating degree days 301 329  
Since 1 July heating degree days 6124 5925  
Cooling Degree Days 0 0  
Month to date cooling degree days 0 0  
Year to date cooling degree days 0 0  
Moisture  
Dew Point 43 °F    
Average Humidity 88    
Maximum Humidity 96    
Minimum Humidity 80    
Precipitation  
Precipitation 0.34 in 0.04 in 0.50 in (1948)
Month to date precipitation 0.47 0.76  
Year to date precipitation 6.17 5.49  
Snow  
Snow 0.00 in 0.00 in 0.30 in (1963)
Month to date snowfall 0.0 0.8  
Since 1 July snowfall 37.6 44.6  
Snow Depth 0.00 in    
Sea Level Pressure  
Sea Level Pressure 29.82 in    
Wind  
Wind Speed 12 mph (SSW)    
Max Wind Speed 24 mph    
Max Gust Speed 31 mph    
Visibility 9 miles    
Events Rain    
T = Trace of Precipitation, MM = Missing Value Source: NWS Daily Summary

Daily Weather History Graph

Daily Weather History Graph

Search for Another Location

Airport or City:

Trip Planner

Search our weather history database for the weather conditions in past years. The results will help you decide how hot, cold, wet, or windy it might be!

Date:

Astronomy

Apr. 17, 2014 Rise Set
Actual Time 5:57 AM PDT 7:42 PM PDT
Civil Twilight 5:24 AM PDT 8:15 PM PDT
Nautical Twilight 4:44 AM PDT 8:55 PM PDT
Astronomical Twilight 4:01 AM PDT 9:39 PM PDT
Moon 10:42 PM PDT (4/17) 7:25 AM PDT (4/17)
Length of Visible Light 14h 50m
Length of Day
13h 45m
Waning Gibbous, 93% of the Moon is Illuminated
Apr 17
Waning Gibbous
Apr 22
Last Quarter
Apr 28
New
May 6
First Quarter
May 14
Full

Hourly Weather History & Observations

Time (PDT) Temp. Windchill Dew Point Humidity Pressure Visibility Wind Dir Wind Speed Gust Speed Precip Events Conditions
12:53 AM 44.1 °F 39.0 °F 39.0 °F 82% 29.96 in 10.0 mi South 9.2 mph - N/A   Overcast
1:53 AM 45.0 °F 40.1 °F 39.0 °F 80% 29.93 in 10.0 mi SSE 9.2 mph - 0.00 in Rain Light Rain
2:53 AM 44.1 °F 39.5 °F 39.0 °F 82% 29.92 in 10.0 mi SSE 8.1 mph - 0.00 in Rain Light Rain
3:53 AM 43.0 °F 38.8 °F 39.9 °F 89% 29.91 in 10.0 mi SSE 6.9 mph - 0.01 in Rain Light Rain
4:53 AM 43.0 °F 38.2 °F 39.9 °F 89% 29.89 in 7.0 mi South 8.1 mph - 0.01 in Rain Light Rain
5:53 AM 43.0 °F 38.8 °F 41.0 °F 93% 29.88 in 10.0 mi South 6.9 mph - 0.02 in Rain Light Rain
6:39 AM 43.0 °F 38.8 °F 41.0 °F 93% 29.85 in 5.0 mi South 6.9 mph - 0.03 in Rain Light Rain
6:53 AM 43.0 °F 38.8 °F 41.0 °F 93% 29.87 in 5.0 mi South 6.9 mph - 0.03 in Rain Light Rain
7:06 AM 43.0 °F 38.8 °F 41.0 °F 93% 29.85 in 5.0 mi South 6.9 mph - 0.01 in Rain Light Rain
7:17 AM 43.0 °F 38.2 °F 41.0 °F 93% 29.84 in 5.0 mi South 8.1 mph - 0.02 in Rain Light Rain
7:53 AM 44.1 °F 39.0 °F 42.1 °F 93% 29.86 in 6.0 mi South 9.2 mph - 0.03 in Rain Light Rain
8:53 AM 45.0 °F 39.7 °F 43.0 °F 93% 29.85 in 10.0 mi SSW 10.4 mph - 0.02 in Rain Light Rain
9:53 AM 46.4 °F 39.8 °F 42.8 °F 87% 29.83 in 9.0 mi SSW 16.1 mph - N/A Rain Light Rain
10:53 AM 46.9 °F - 44.1 °F 90% 29.84 in 7.0 mi SSW 13.8 mph - 0.03 in Rain Light Rain
11:53 AM 48.0 °F - 44.1 °F 86% 29.84 in 8.0 mi SSW 12.7 mph - 0.02 in Rain Light Rain
12:53 PM 48.9 °F - 45.0 °F 86% 29.83 in 8.0 mi SW 11.5 mph - 0.02 in Rain Light Rain
1:43 PM 48.9 °F - 44.1 °F 83% 29.80 in 10.0 mi SSW 11.5 mph - 0.02 in Rain Light Rain
1:53 PM 48.9 °F - 45.0 °F 86% 29.81 in 10.0 mi SW 9.2 mph - 0.02 in Rain Light Rain
2:53 PM 50.0 °F - 45.0 °F 83% 29.80 in 10.0 mi SW 8.1 mph - 0.01 in Rain Light Rain
3:53 PM 48.9 °F - 45.0 °F 86% 29.79 in 10.0 mi SSW 9.2 mph - 0.00 in Rain Light Rain
4:53 PM 48.9 °F - 45.0 °F 86% 29.78 in 10.0 mi SSW 10.4 mph - 0.02 in Rain Light Rain
5:53 PM 48.0 °F - 45.0 °F 89% 29.77 in 9.0 mi SSW 10.4 mph - 0.02 in Rain Light Rain
6:53 PM 46.9 °F - 44.1 °F 90% 29.77 in 7.0 mi SW 11.5 mph - 0.02 in Rain Light Rain
7:53 PM 46.9 °F - 44.1 °F 90% 29.76 in 8.0 mi SSW 10.4 mph - 0.02 in Rain Light Rain
8:22 PM 46.9 °F - 44.1 °F 90% 29.74 in 9.0 mi SSW 11.5 mph - 0.01 in Rain Light Rain
8:34 PM 46.9 °F - 44.1 °F 90% 29.75 in 8.0 mi SW 17.3 mph - 0.02 in Rain Light Rain
8:53 PM 46.0 °F 38.8 °F 43.0 °F 89% 29.76 in 10.0 mi SW 18.4 mph - 0.02 in Rain Light Rain
9:02 PM 46.0 °F 39.3 °F 43.0 °F 89% 29.75 in 10.0 mi SSW 16.1 mph - 0.00 in Rain Light Rain
9:24 PM 46.0 °F 39.3 °F 43.0 °F 89% 29.74 in 10.0 mi SSW 16.1 mph 25.3 mph 0.01 in   Overcast
9:53 PM 46.0 °F 39.0 °F 43.0 °F 89% 29.75 in 10.0 mi SSW 17.3 mph 26.5 mph 0.01 in   Overcast
10:53 PM 46.0 °F 38.0 °F 42.1 °F 86% 29.74 in 10.0 mi SSW 21.9 mph 27.6 mph N/A   Overcast
11:18 PM 46.0 °F 38.5 °F 42.1 °F 86% 29.72 in 10.0 mi SSW 19.6 mph 26.5 mph N/A   Overcast
11:53 PM 46.0 °F 38.3 °F 42.1 °F 86% 29.74 in 10.0 mi SSW 20.7 mph - N/A   Overcast